Time,TemperatureF,DewpointF,PressureIn,WindDirection,WindDirectionDegrees,WindSpeedMPH,WindSpeedGustMPH,Humidity,HourlyPrecipIn,Conditions,Clouds,dailyrainin,SoftwareType,DateUTC
2013-07-03 00:01:00,71.0,69.0,30.06,SSW,206,0.0,-999.0,93,-99.99,,,-99.99,,2013-07-03 04:01:00,
2013-07-03 00:11:00,71.0,69.0,30.06,SSW,206,0.0,-999.0,93,-99.99,,,-99.99,,2013-07-03 04:11:00,
2013-07-03 00:22:00,71.0,69.0,30.06,SSW,206,0.0,-999.0,93,-99.99,,,-99.99,,2013-07-03 04:22:00,
2013-07-03 00:34:00,71.0,69.0,30.06,SSW,206,0.0,-999.0,93,-99.99,,,-99.99,,2013-07-03 04:34:00,
2013-07-03 00:43:00,71.0,69.0,30.06,SW,215,1.0,-999.0,94,-99.99,,,-99.99,,2013-07-03 04:43:00,
2013-07-03 00:52:00,71.0,69.0,30.06,SW,215,1.0,-999.0,94,-99.99,,,-99.99,,2013-07-03 04:52:00,
2013-07-03 01:02:00,71.0,69.0,30.06,SW,215,0.0,-999.0,94,-99.99,,,-99.99,,2013-07-03 05:02:00,
2013-07-03 01:11:00,71.0,69.0,30.06,SW,215,0.0,-999.0,94,-99.99,,,-99.99,,2013-07-03 05:11:00,
2013-07-03 01:23:00,71.0,69.0,30.06,SW,215,0.0,-999.0,94,-99.99,,,-99.99,,2013-07-03 05:23:00,
2013-07-03 01:47:00,70.0,68.0,30.05,SW,215,0.0,-999.0,93,-99.99,,,-99.99,,2013-07-03 05:47:00,
2013-07-03 02:07:00,69.0,67.0,30.05,SW,215,0.0,-999.0,93,-99.99,,,-99.99,,2013-07-03 06:07:00,
2013-07-03 02:25:00,69.0,67.0,30.05,North,-999,0.0,-999.0,94,-99.99,,,-99.99,,2013-07-03 06:25:00,
2013-07-03 02:55:00,69.0,68.0,30.06,SW,215,0.0,-999.0,95,-99.99,,,-99.99,,2013-07-03 06:55:00,
2013-07-03 03:06:00,69.0,67.0,30.06,SW,215,0.0,-999.0,94,-99.99,,,-99.99,,2013-07-03 07:06:00,
2013-07-03 03:15:00,69.0,67.0,30.06,SW,215,0.0,-999.0,94,-99.99,,,-99.99,,2013-07-03 07:15:00,
2013-07-03 03:37:00,69.0,68.0,30.05,SW,215,0.0,-999.0,95,-99.99,,,-99.99,,2013-07-03 07:37:00,
2013-07-03 03:47:00,68.0,67.0,30.06,SW,215,0.0,-999.0,95,-99.99,,,-99.99,,2013-07-03 07:47:00,
2013-07-03 03:57:00,68.0,67.0,30.06,SW,215,0.0,-999.0,95,-99.99,,,-99.99,,2013-07-03 07:57:00,
2013-07-03 04:16:00,69.0,68.0,30.06,SSW,213,0.0,-999.0,95,-99.99,,,-99.99,,2013-07-03 08:16:00,
2013-07-03 04:25:00,69.0,68.0,30.06,SSW,213,0.0,-999.0,95,-99.99,,,-99.99,,2013-07-03 08:25:00,
2013-07-03 04:45:00,69.0,68.0,30.06,SSW,213,0.0,-999.0,95,-99.99,,,-99.99,,2013-07-03 08:45:00,
2013-07-03 04:56:00,69.0,68.0,30.06,SSW,213,0.0,-999.0,95,-99.99,,,-99.99,,2013-07-03 08:56:00,
2013-07-03 05:06:00,69.0,68.0,30.06,SSW,213,0.0,-999.0,95,-99.99,,,-99.99,,2013-07-03 09:06:00,
2013-07-03 05:16:00,69.0,68.0,30.06,SSW,213,0.0,-999.0,95,-99.99,,,-99.99,,2013-07-03 09:16:00,
2013-07-03 05:25:00,69.0,68.0,30.06,SSW,213,0.0,-999.0,95,-99.99,,,-99.99,,2013-07-03 09:25:00,
2013-07-03 05:46:00,68.0,67.0,30.07,SSW,213,0.0,-999.0,95,-99.99,,,-99.99,,2013-07-03 09:46:00,
2013-07-03 06:05:00,68.0,67.0,30.08,SSW,213,0.0,-999.0,95,-99.99,,,-99.99,,2013-07-03 10:05:00,
2013-07-03 06:16:00,68.0,67.0,30.08,SSW,213,0.0,-999.0,95,-99.99,,,-99.99,,2013-07-03 10:16:00,
2013-07-03 06:28:00,68.0,67.0,30.08,SSW,213,0.0,-999.0,95,-99.99,,,-99.99,,2013-07-03 10:28:00,
2013-07-03 06:45:00,68.0,67.0,30.09,SE,145,0.0,-999.0,95,-99.99,,,-99.99,,2013-07-03 10:45:00,
2013-07-03 06:55:00,68.0,67.0,30.09,SE,145,0.0,-999.0,95,-99.99,,,-99.99,,2013-07-03 10:55:00,
2013-07-03 07:16:00,68.0,67.0,30.09,SE,145,0.0,-999.0,95,-99.99,,,-99.99,,2013-07-03 11:16:00,
2013-07-03 07:25:00,68.0,67.0,30.10,SE,145,0.0,-999.0,95,-99.99,,,-99.99,,2013-07-03 11:25:00,
2013-07-03 07:43:00,68.0,67.0,30.11,SE,145,0.0,-999.0,95,-99.99,,,-99.99,,2013-07-03 11:43:00,
2013-07-03 07:53:00,68.0,67.0,30.11,SE,145,0.0,-999.0,95,-99.99,,,-99.99,,2013-07-03 11:53:00,
2013-07-03 08:25:00,68.0,67.0,30.11,SSW,204,0.0,-999.0,95,-99.99,,,-99.99,,2013-07-03 12:25:00,
2013-07-03 08:37:00,69.0,68.0,30.11,SSW,205,0.0,-999.0,96,-99.99,,,-99.99,,2013-07-03 12:37:00,
2013-07-03 09:08:00,70.0,68.0,30.13,SSW,204,0.0,-999.0,95,-99.99,,,-99.99,,2013-07-03 13:08:00,
2013-07-03 09:25:00,70.0,68.0,30.14,SSW,204,0.0,-999.0,95,-99.99,,,-99.99,,2013-07-03 13:25:00,
2013-07-03 09:47:00,72.0,70.0,30.15,SSW,204,0.0,-999.0,92,-99.99,,,-99.99,,2013-07-03 13:47:00,
2013-07-03 09:54:00,72.0,70.0,30.15,SSW,204,0.0,-999.0,92,-99.99,,,-99.99,,2013-07-03 13:54:00,
2013-07-03 10:15:00,72.0,70.0,30.15,SSW,205,0.0,-999.0,92,-99.99,,,-99.99,,2013-07-03 14:15:00,
2013-07-03 10:26:00,72.0,69.0,30.14,SSW,204,0.0,-999.0,91,-99.99,,,-99.99,,2013-07-03 14:26:00,
2013-07-03 10:46:00,73.0,70.0,30.14,ENE,69,0.0,-999.0,90,-99.99,,,-99.99,,2013-07-03 14:46:00,
2013-07-03 11:06:00,73.0,69.0,30.14,ENE,69,0.0,-999.0,88,-99.99,,,-99.99,,2013-07-03 15:06:00,
2013-07-03 11:26:00,73.0,69.0,30.14,ENE,69,0.0,-999.0,88,-99.99,,,-99.99,,2013-07-03 15:26:00,
2013-07-03 11:37:00,74.0,69.0,30.15,WSW,246,0.0,-999.0,85,-99.99,,,-99.99,,2013-07-03 15:37:00,
2013-07-03 11:47:00,76.0,71.0,30.15,WSW,244,0.0,-999.0,85,-99.99,,,-99.99,,2013-07-03 15:47:00,
2013-07-03 11:55:00,76.0,71.0,30.15,WSW,244,0.0,-999.0,85,-99.99,,,-99.99,,2013-07-03 15:55:00,
2013-07-03 12:23:00,77.0,70.0,30.15,SSW,201,3.0,-999.0,79,-99.99,,,-99.99,,2013-07-03 16:23:00,
2013-07-03 12:46:00,78.0,70.0,30.14,SSW,200,3.0,-999.0,76,-99.99,,,-99.99,,2013-07-03 16:46:00,
2013-07-03 12:56:00,78.0,70.0,30.14,SSW,200,3.0,-999.0,76,-99.99,,,-99.99,,2013-07-03 16:56:00,
2013-07-03 13:25:00,79.0,72.0,30.14,South,184,1.0,-999.0,78,-99.99,,,-99.99,,2013-07-03 17:25:00,
2013-07-03 13:40:00,79.0,70.0,30.14,South,173,2.0,-999.0,75,-99.99,,,-99.99,,2013-07-03 17:40:00,
2013-07-03 13:53:00,79.0,71.0,30.14,South,191,1.0,-999.0,76,-99.99,,,-99.99,,2013-07-03 17:53:00,
2013-07-03 14:25:00,79.0,71.0,30.14,SSW,207,2.0,-999.0,77,-99.99,,,-99.99,,2013-07-03 18:25:00,
2013-07-03 14:37:00,79.0,71.0,30.14,SSW,206,0.0,-999.0,76,-99.99,,,-99.99,,2013-07-03 18:37:00,
2013-07-03 14:45:00,79.0,72.0,30.14,SSW,206,1.0,-999.0,78,-99.99,,,-99.99,,2013-07-03 18:45:00,
2013-07-03 14:56:00,79.0,72.0,30.14,SSW,206,1.0,-999.0,78,-99.99,,,-99.99,,2013-07-03 18:56:00,
2013-07-03 15:29:00,79.0,70.0,30.13,SSW,200,2.0,-999.0,73,-99.99,,,-99.99,,2013-07-03 19:29:00,
2013-07-03 15:38:00,80.0,70.0,30.12,SSW,199,1.0,-999.0,72,-99.99,,,-99.99,,2013-07-03 19:38:00,
2013-07-03 15:46:00,79.0,69.0,30.11,SSW,199,0.0,-999.0,72,-99.99,,,-99.99,,2013-07-03 19:46:00,
2013-07-03 16:25:00,79.0,70.0,30.11,SSW,199,0.0,-999.0,75,-99.99,,,-99.99,,2013-07-03 20:25:00,
2013-07-03 16:37:00,78.0,70.0,30.11,SSW,199,1.0,-999.0,77,-99.99,,,-99.99,,2013-07-03 20:37:00,
2013-07-03 16:55:00,78.0,71.0,30.11,SSW,199,0.0,-999.0,80,-99.99,,,-99.99,,2013-07-03 20:55:00,
2013-07-03 17:26:00,78.0,72.0,30.12,SSW,199,0.0,-999.0,82,-99.99,,,-99.99,,2013-07-03 21:26:00,
2013-07-03 17:44:00,78.0,72.0,30.11,SSW,199,0.0,-999.0,81,-99.99,,,-99.99,,2013-07-03 21:44:00,
2013-07-03 17:53:00,78.0,72.0,30.11,SSW,199,0.0,-999.0,81,-99.99,,,-99.99,,2013-07-03 21:53:00,
2013-07-03 18:26:00,78.0,72.0,30.10,SSW,199,0.0,-999.0,83,-99.99,,,-99.99,,2013-07-03 22:26:00,
2013-07-03 18:37:00,77.0,72.0,30.10,SSW,199,0.0,-999.0,86,-99.99,,,-99.99,,2013-07-03 22:37:00,
2013-07-03 18:45:00,76.0,72.0,30.10,SSW,199,0.0,-999.0,87,-99.99,,,-99.99,,2013-07-03 22:45:00,
2013-07-03 18:54:00,76.0,72.0,30.10,SSW,199,0.0,-999.0,87,-99.99,,,-99.99,,2013-07-03 22:54:00,
2013-07-03 19:14:00,76.0,73.0,30.11,SSW,199,0.0,-999.0,89,-99.99,,,-99.99,,2013-07-03 23:14:00,
2013-07-03 19:24:00,75.0,72.0,30.11,SSW,199,0.0,-999.0,89,-99.99,,,-99.99,,2013-07-03 23:24:00,
2013-07-03 19:39:00,75.0,72.0,30.11,SSW,199,0.0,-999.0,91,-99.99,,,-99.99,,2013-07-03 23:39:00,
2013-07-03 19:45:00,74.0,71.0,30.12,SSW,199,0.0,-999.0,91,-99.99,,,-99.99,,2013-07-03 23:45:00,
2013-07-03 19:55:00,74.0,71.0,30.12,SSW,199,0.0,-999.0,91,-99.99,,,-99.99,,2013-07-03 23:55:00,
2013-07-03 20:15:00,74.0,71.0,30.12,SW,232,0.0,-999.0,91,-99.99,,,-99.99,,2013-07-04 00:15:00,
2013-07-03 20:25:00,74.0,71.0,30.12,SW,232,0.0,-999.0,91,-99.99,,,-99.99,,2013-07-04 00:25:00,
2013-07-03 20:37:00,74.0,72.0,30.12,SW,232,0.0,-999.0,92,-99.99,,,-99.99,,2013-07-04 00:37:00,
2013-07-03 20:56:00,73.0,71.0,30.11,SW,232,0.0,-999.0,92,-99.99,,,-99.99,,2013-07-04 00:56:00,
2013-07-03 21:15:00,73.0,71.0,30.11,SW,232,0.0,-999.0,92,-99.99,,,-99.99,,2013-07-04 01:15:00,
2013-07-03 21:23:00,73.0,71.0,30.11,SW,232,0.0,-999.0,92,-99.99,,,-99.99,,2013-07-04 01:23:00,
2013-07-03 21:38:00,73.0,71.0,30.12,SW,232,0.0,-999.0,92,-99.99,,,-99.99,,2013-07-04 01:38:00,
2013-07-03 22:07:00,72.0,70.0,30.12,SW,232,0.0,-999.0,92,-99.99,,,-99.99,,2013-07-04 02:07:00,
2013-07-03 22:14:00,72.0,70.0,30.12,SW,232,0.0,-999.0,92,-99.99,,,-99.99,,2013-07-04 02:14:00,
2013-07-03 22:24:00,72.0,70.0,30.12,SW,232,0.0,-999.0,92,-99.99,,,-99.99,,2013-07-04 02:24:00,
2013-07-03 22:48:00,72.0,70.0,30.12,South,174,0.0,-999.0,92,-99.99,,,-99.99,,2013-07-04 02:48:00,
2013-07-03 22:55:00,72.0,70.0,30.12,South,174,0.0,-999.0,92,-99.99,,,-99.99,,2013-07-04 02:55:00,
2013-07-03 23:27:00,72.0,69.0,30.14,SSW,195,1.0,-999.0,91,-99.99,,,-99.99,,2013-07-04 03:27:00,
2013-07-03 23:35:00,72.0,69.0,30.14,SSW,195,1.0,-999.0,91,-99.99,,,-99.99,,2013-07-04 03:35:00,
2013-07-03 23:46:00,71.0,68.0,30.14,SSW,195,0.0,-999.0,91,-99.99,,,-99.99,,2013-07-04 03:46:00,
2013-07-03 23:56:00,71.0,68.0,30.14,SSW,195,0.0,-999.0,91,-99.99,,,-99.99,,2013-07-04 03:56:00,